Weather History for Naples, FL

Change the Weather History Date:

Wednesday, December 19, 2012

  Actual Average Record
Temperature  
Mean Temperature 70 °F 66 °F  
Max Temperature 82 °F 76 °F 86 °F (1967)
Min Temperature 58 °F 56 °F 34 °F (1988)
Degree Days  
Heating Degree Days 0 2  
Month to date heating degree days 0 33  
Since 1 July heating degree days 13 47  
Cooling Degree Days 5 4  
Month to date cooling degree days 134 86  
Year to date cooling degree days 4100 3905  
Growing Degree Days 20 (Base 50)    
Moisture  
Dew Point 61 °F    
Average Humidity 75    
Maximum Humidity 100    
Minimum Humidity 50    
Precipitation  
Precipitation 0.00 in 0.06 in 0.37 in (1995)
Month to date precipitation 1.65 0.91  
Year to date precipitation 37.80 51.35  
Snow  
Snow 0.00 in - - ()
Month to date snowfall 0.0  
Since 1 July snowfall 0.0  
Snow Depth 0.00 in    
Sea Level Pressure  
Sea Level Pressure 30.05 in    
Wind  
Wind Speed 4 mph (NNE)    
Max Wind Speed 10 mph    
Max Gust Speed 13 mph    
Visibility 9 miles    
Events      
T = Trace of Precipitation, MM = Missing Value Source: NWS Daily Summary

Daily Weather History Graph

Daily Weather History Graph

Search for Another Location

Airport:

Trip Planner

Search our weather history database for the weather conditions in past years. The results will help you decide how hot, cold, wet, or windy it might be!

Date:

Astronomy

Dec. 19, 2012 Rise Set
Actual Time 7:09 AM EST 5:39 PM EST
Civil Twilight 6:44 AM EST 6:04 PM EST
Nautical Twilight 6:15 AM EST 6:33 PM EST
Astronomical Twilight 5:46 AM EST 7:02 PM EST
Moon 11:54 AM EST (12/19) No Moon Set
Length of Visible Light 11h 20m
Length of Day
10h 30m
Waxing Crescent, 45% of the Moon is Illuminated
Dec 19
Waxing Crescent
Dec 20
First Quarter
Dec 28
Full
Jan 4
Last Quarter
Jan 11
New

Hourly Weather History & Observations

Time (EST) Temp. Heat Index Dew Point Humidity Pressure Visibility Wind Dir Wind Speed Gust Speed Precip Events Conditions
12:53 AM 68.0 °F - 66.9 °F 96% 30.03 in 8.0 mi Calm Calm - N/A   Clear
1:53 AM 66.0 °F - 64.9 °F 96% 30.03 in 6.0 mi Calm Calm - N/A   Clear
2:53 AM 64.9 °F - 64.0 °F 97% 30.03 in 5.0 mi Calm Calm - N/A   Clear
3:53 AM 63.0 °F - 62.1 °F 97% 30.03 in 8.0 mi NNE 3.5 mph - N/A   Clear
4:53 AM 63.0 °F - 62.1 °F 97% 30.03 in 8.0 mi NNE 5.8 mph - N/A   Clear
5:53 AM 61.0 °F - 57.0 °F 87% 30.04 in 10.0 mi NNE 6.9 mph - N/A   Clear
7:53 AM 59.0 °F - 57.0 °F 93% 30.06 in 8.0 mi ENE 6.9 mph - N/A   Clear
8:53 AM 64.0 °F - 55.0 °F 73% 30.09 in 10.0 mi NE 6.9 mph - N/A   Clear
9:53 AM 69.1 °F - 54.0 °F 58% 30.11 in 10.0 mi NE 6.9 mph - N/A   Clear
10:53 AM 73.0 °F - 55.9 °F 55% 30.10 in 10.0 mi ENE 6.9 mph - N/A   Clear
11:53 AM 77.0 °F - 57.9 °F 52% 30.09 in 10.0 mi NE 5.8 mph - N/A   Clear
12:53 PM 79.0 °F - 59.0 °F 50% 30.06 in 10.0 mi Calm Calm - N/A   Clear
1:53 PM 81.0 °F 81.6 °F 60.1 °F 49% 30.04 in 10.0 mi Calm Calm - N/A   Clear
2:53 PM 79.0 °F - 61.0 °F 54% 30.03 in 10.0 mi West 8.1 mph - N/A   Clear
3:53 PM 79.0 °F - 62.1 °F 56% 30.03 in 10.0 mi WNW 6.9 mph - N/A   Clear
4:53 PM 77.0 °F - 62.1 °F 60% 30.03 in 10.0 mi NW 5.8 mph - N/A   Clear
5:53 PM 73.0 °F - 62.1 °F 68% 30.04 in 10.0 mi NW 4.6 mph - N/A   Clear
6:53 PM 70.0 °F - 64.0 °F 81% 30.05 in 10.0 mi Calm Calm - N/A   Clear
7:53 PM 68.0 °F - 64.0 °F 87% 30.06 in 10.0 mi Calm Calm - N/A   Clear
8:53 PM 66.9 °F - 64.0 °F 90% 30.07 in 10.0 mi Calm Calm - N/A   Clear
9:53 PM 66.9 °F - 62.1 °F 84% 30.07 in 10.0 mi Calm Calm - N/A   Clear
10:53 PM 64.9 °F - 59.0 °F 81% 30.06 in 10.0 mi ESE 3.5 mph - N/A   Clear
11:53 PM 64.0 °F - 57.9 °F 80% 30.06 in 10.0 mi East 4.6 mph - N/A   Clear